OVZON-3

Last updated on Tue Dec 16 2025 00:02:53 GMT+0000 (Coordinated Universal Time)

1 58698U 24003A 25349.21297194 .00000072 00000+0 00000+0 0 9990 2 58698 0.0168 261.7462 0000162 213.5481 105.1839 1.00272213 5598
UTC large
Height (km)
Speed (km/s)
/
Latitude / Longitude
Inclination (degrees)
Orbital Period (minutes)
Azimuth
Elevation
Range (km)
Doppler Factor

Next 0 passes for location: London (51.5072 / 0.1276)

Sorry there are no passes over London.